When you browse on this site, cookies collect data to enhance your experience and personalize the content and advertising you see.
Visit our Privacy Policy to learn more. By continuing to use the site, you agree to this use of cookies and data.
  • In Hungary
  • List of Countries
  • For 7 days
  • Water Temperature
  • Satellite Maps
  • Weather Map
  • News
  • Weather Widgets
  • user-avatar
    Login

    Hourly Weather Vilar do Paraiso

    Today, 18 November, Sunday

    Time Temperature Precipitation Wind Pressure Humidity
    00:00 +16°C° 0.1 mm 5 mps 747 mmHg 72%
    01:00 +16°C° 0.1 mm 6 mps 746 mmHg 73%
    02:00 +16°C° 0.1 mm 6 mps 746 mmHg 74%
    03:00 +15°C° 0.3 mm 6 mps 746 mmHg 75%
    04:00 +15°C° 0.3 mm 6 mps 745 mmHg 76%
    05:00 +15°C° 0 mm 5 mps 745 mmHg 76%
    06:00 +15°C° 0 mm 5 mps 745 mmHg 76%
    07:00 +15°C° 0 mm 5 mps 745 mmHg 77%
    08:00 +15°C° 0 mm 5 mps 745 mmHg 77%
    09:00 +15°C° 0.2 mm 4 mps 745 mmHg 76%
    10:00 +17°C° 0.2 mm 4 mps 745 mmHg 76%
    11:00 +17°C° 0 mm 3 mps 746 mmHg 74%
    12:00 +17°C° 0.4 mm 3 mps 745 mmHg 76%
    13:00 +17°C° 0.4 mm 3 mps 745 mmHg 78%
    14:00 +16°C° 0.4 mm 2 mps 745 mmHg 80%
    15:00 +16°C° 0.4 mm 2 mps 745 mmHg 82%
    16:00 +15°C° 0.4 mm 2 mps 745 mmHg 85%
    17:00 +15°C° 0.4 mm 1 mps 745 mmHg 87%
    18:00 +15°C° 0.2 mm 1 mps 745 mmHg 87%
    19:00 +15°C° 0.2 mm 1 mps 745 mmHg 88%
    20:00 +14°C° 0.2 mm 1 mps 745 mmHg 89%
    21:00 +14°C° 0.2 mm 1 mps 745 mmHg 89%
    22:00 +14°C° 0.2 mm 1 mps 745 mmHg 89%
    23:00 +14°C° 0.2 mm 1 mps 745 mmHg 89%

    Tomorrow, 19 November, Monday

    Time Temperature Precipitation Wind Pressure Humidity
    00:00 +14°C° 0 mm 1 mps 745 mmHg 89%
    01:00 +14°C° 0 mm 1 mps 745 mmHg 89%
    02:00 +14°C° 0 mm 1 mps 745 mmHg 89%
    03:00 +14°C° 0 mm 1 mps 745 mmHg 90%
    04:00 +13°C° 0 mm 1 mps 746 mmHg 90%
    05:00 +13°C° 0 mm 2 mps 746 mmHg 90%
    06:00 +14°C° 0 mm 2 mps 746 mmHg 88%
    07:00 +14°C° 0 mm 2 mps 746 mmHg 86%
    08:00 +14°C° 0 mm 2 mps 747 mmHg 84%
    09:00 +16°C° 0 mm 2 mps 747 mmHg 79%
    10:00 +17°C° 0 mm 2 mps 747 mmHg 73%
    11:00 +18°C° 0 mm 2 mps 747 mmHg 67%
    12:00 +18°C° 0.1 mm 2 mps 747 mmHg 68%
    13:00 +18°C° 0.1 mm 2 mps 746 mmHg 69%
    14:00 +17°C° 0.1 mm 2 mps 746 mmHg 70%
    15:00 +16°C° 0.1 mm 2 mps 746 mmHg 75%
    16:00 +15°C° 0.1 mm 2 mps 746 mmHg 81%
    17:00 +14°C° 0.1 mm 1 mps 746 mmHg 86%
    18:00 +14°C° 0.2 mm 2 mps 746 mmHg 88%
    19:00 +14°C° 0.2 mm 2 mps 747 mmHg 89%
    20:00 +13°C° 0.2 mm 2 mps 747 mmHg 90%
    21:00 +13°C° 0.2 mm 2 mps 747 mmHg 91%
    22:00 +13°C° 0.2 mm 2 mps 746 mmHg 92%
    23:00 +12°C° 0.2 mm 3 mps 746 mmHg 92%

    Day after tomorrow, 20 November, Tuesday

    Time Temperature Precipitation Wind Pressure Humidity
    00:00 +12°C° 0.3 mm 3 mps 746 mmHg 92%
    01:00 +12°C° 0.3 mm 3 mps 746 mmHg 93%
    02:00 +12°C° 0.3 mm 3 mps 746 mmHg 93%
    03:00 +12°C° 0.3 mm 3 mps 745 mmHg 92%
    04:00 +12°C° 0.3 mm 3 mps 745 mmHg 92%
    05:00 +11°C° 0.3 mm 4 mps 744 mmHg 91%
    06:00 +11°C° 0.9 mm 4 mps 745 mmHg 90%
    07:00 +12°C° 0.9 mm 4 mps 745 mmHg 88%
    08:00 +12°C° 0.9 mm 4 mps 745 mmHg 87%
    09:00 +12°C° 0.2 mm 4 mps 745 mmHg 84%
    10:00 +13°C° 0.2 mm 4 mps 745 mmHg 81%
    11:00 +14°C° 0.2 mm 4 mps 745 mmHg 79%
    12:00 +14°C° 0.1 mm 4 mps 745 mmHg 77%
    13:00 +14°C° 0.1 mm 4 mps 745 mmHg 76%
    14:00 +14°C° 0.1 mm 4 mps 745 mmHg 75%
    15:00 +14°C° 0.2 mm 5 mps 745 mmHg 80%
    16:00 +13°C° 0.2 mm 5 mps 746 mmHg 85%
    17:00 +11°C° 0.2 mm 6 mps 746 mmHg 90%
    18:00 +12°C° 0.2 mm 5 mps 747 mmHg 88%
    19:00 +10°C° 0.2 mm 5 mps 747 mmHg 87%
    20:00 +11°C° 0.2 mm 4 mps 748 mmHg 85%
    21:00 +10°C° 0.1 mm 3 mps 748 mmHg 85%
    22:00 +10°C° 0.1 mm 2 mps 748 mmHg 86%
    23:00 +9°C° 0.1 mm 2 mps 749 mmHg 86%

    21 November, Wednesday

    Time Temperature Precipitation Wind Pressure Humidity
    00:00 +9°C° 0.2 mm 2 mps 749 mmHg 87%
    01:00 +9°C° 0.2 mm 2 mps 749 mmHg 88%
    02:00 +9°C° 0.2 mm 3 mps 749 mmHg 89%
    03:00 +9°C° 0.3 mm 3 mps 749 mmHg 89%
    04:00 +9°C° 0.3 mm 3 mps 749 mmHg 89%
    05:00 +10°C° 0.3 mm 4 mps 749 mmHg 89%
    06:00 +10°C° 0.4 mm 4 mps 750 mmHg 88%
    07:00 +10°C° 0.4 mm 4 mps 750 mmHg 87%
    08:00 +10°C° 0.4 mm 4 mps 751 mmHg 85%
    09:00 +11°C° 0.5 mm 4 mps 751 mmHg 81%
    10:00 +12°C° 0.5 mm 5 mps 751 mmHg 78%
    11:00 +12°C° 0.5 mm 5 mps 751 mmHg 74%
    12:00 +12°C° 0.6 mm 5 mps 751 mmHg 74%
    13:00 +12°C° 0.6 mm 5 mps 751 mmHg 74%
    14:00 +12°C° 0.6 mm 5 mps 751 mmHg 75%
    15:00 +10°C° 0.6 mm 5 mps 751 mmHg 78%
    16:00 +9°C° 0.6 mm 5 mps 751 mmHg 82%
    17:00 +9°C° 0.6 mm 5 mps 751 mmHg 85%
    18:00 +9°C° 0.5 mm 5 mps 751 mmHg 86%
    19:00 +8°C° 0.5 mm 5 mps 751 mmHg 87%
    20:00 +8°C° 0.5 mm 5 mps 751 mmHg 88%
    21:00 +8°C° 0.4 mm 5 mps 752 mmHg 88%
    22:00 +8°C° 0.4 mm 5 mps 752 mmHg 89%
    23:00 +8°C° 0.4 mm 5 mps 752 mmHg 90%

    22 November, Thursday

    Time Temperature Precipitation Wind Pressure Humidity
    00:00 +8°C° 0.4 mm 5 mps 752 mmHg 90%
    01:00 +8°C° 0.4 mm 5 mps 752 mmHg 90%
    02:00 +8°C° 0.4 mm 5 mps 752 mmHg 90%
    03:00 +8°C° 0.5 mm 5 mps 752 mmHg 90%
    04:00 +8°C° 0.5 mm 5 mps 752 mmHg 90%
    05:00 +8°C° 0.5 mm 5 mps 752 mmHg 90%
    06:00 +8°C° 0.7 mm 5 mps 753 mmHg 90%
    07:00 +8°C° 0.7 mm 5 mps 753 mmHg 89%
    08:00 +9°C° 0.7 mm 5 mps 753 mmHg 88%
    09:00 +10°C° 0.7 mm 6 mps 753 mmHg 84%
    10:00 +11°C° 0.7 mm 6 mps 753 mmHg 80%
    11:00 +12°C° 0.7 mm 7 mps 753 mmHg 75%
    12:00 +11°C° 0.7 mm 7 mps 753 mmHg 75%
    13:00 +11°C° 0.7 mm 7 mps 753 mmHg 76%
    14:00 +11°C° 0.7 mm 7 mps 753 mmHg 76%
    15:00 +11°C° 0.7 mm 6 mps 753 mmHg 79%
    16:00 +10°C° 0.7 mm 5 mps 753 mmHg 82%
    17:00 +9°C° 0.7 mm 5 mps 754 mmHg 86%
    18:00 +10°C° 0.5 mm 4 mps 754 mmHg 87%
    19:00 +10°C° 0.5 mm 3 mps 755 mmHg 88%
    20:00 +9°C° 0.5 mm 2 mps 755 mmHg 89%
    21:00 +9°C° 0.1 mm 2 mps 755 mmHg 90%
    22:00 +9°C° 0.1 mm 2 mps 755 mmHg 91%
    23:00 +9°C° 0.1 mm 3 mps 756 mmHg 92%

    23 November, Friday

    Time Temperature Precipitation Wind Pressure Humidity
    00:00 +8°C° 0.1 mm 3 mps 756 mmHg 92%
    01:00 +8°C° 0.1 mm 3 mps 756 mmHg 92%
    02:00 +7°C° 0.1 mm 4 mps 755 mmHg 92%
    03:00 +7°C° 0.1 mm 4 mps 755 mmHg 92%
    04:00 +7°C° 0.1 mm 4 mps 755 mmHg 91%
    05:00 +7°C° 0.1 mm 4 mps 755 mmHg 91%
    06:00 +8°C° 0.2 mm 4 mps 755 mmHg 89%
    07:00 +8°C° 0.2 mm 5 mps 756 mmHg 88%
    08:00 +9°C° 0.2 mm 5 mps 756 mmHg 87%
    09:00 +9°C° 0.9 mm 5 mps 756 mmHg 86%
    10:00 +10°C° 0.9 mm 5 mps 755 mmHg 85%
    11:00 +10°C° 0.9 mm 6 mps 755 mmHg 84%
    12:00 +10°C° 1.2 mm 5 mps 755 mmHg 85%
    13:00 +10°C° 1.2 mm 5 mps 754 mmHg 87%
    14:00 +10°C° 1.2 mm 5 mps 754 mmHg 88%
    15:00 +10°C° 1 mm 5 mps 754 mmHg 89%
    16:00 +11°C° 1 mm 4 mps 754 mmHg 90%
    17:00 +10°C° 1 mm 4 mps 754 mmHg 90%
    18:00 +10°C° 1 mm 4 mps 755 mmHg 91%
    19:00 +10°C° 1 mm 4 mps 755 mmHg 91%
    20:00 +10°C° 1 mm 4 mps 755 mmHg 91%
    21:00 +10°C° 0.8 mm 4 mps 755 mmHg 91%
    22:00 +10°C° 0.8 mm 4 mps 756 mmHg 91%
    23:00 +10°C° 0.8 mm 4 mps 756 mmHg 91%
    Show more